Meath Environmental Platform

Observations for Trim Patrick St

Time AQI Temp °C Hum % Pres Pa CO μg/m³ H₂S μg/m³ NO μg/m³ NO₂ μg/m³ O₃ μg/m³ SO₂ μg/m³ PM1 μg/m³ PM2.5 μg/m³ PM10 μg/m³
Monday 3 August 2026
08:08 2 19.2 71 38,460 0.17 0 2.05 18.06 50.2 0 4.57 8.67 9.54
08:07 2 19.1 71 38,460 0.18 0 2.22 15.27 41.29 0 5.43 9.43 10.37
08:06 2 19.1 71 38,460 0.18 0 2.08 13.3 41.6 0 7.14 10.86 11.94
08:05 2 19 71 38,460 0.18 0 1.72 14.13 40.82 0 4.57 8.66 9.53
08:04 2 19 72 38,460 0.16 0 1.68 15.69 49.83 0 5.43 9.34 10.28
08:03 2 18.9 71 38,460 0.17 0 1.99 13.91 44.39 0 5.43 10.11 11.12
08:02 2 18.8 71 38,460 0.17 0 1.79 16.39 43.64 0 5.43 10.09 11.1
08:01 2 18.8 71 38,460 0.16 0 1.81 18.17 46.59 0 4.57 9.37 10.31
08:00 2 18.7 72 38,460 0.17 0 1.81 13.09 45.46 0 3.71 7.93 8.72
07:59 2 18.7 72 38,460 0.17 0 2.06 12.19 47.75 0 4.57 9.36 10.29
07:58 2 18.6 71 38,460 0.14 0 1.72 13.23 43.44 0 4.57 8.66 9.53
07:57 2 18.6 72 38,460 0.14 0 1.69 16.34 45.02 0 2.86 7.91 8.7
07:55 2 18.5 72 38,460 0.16 0 1.74 10.68 46.06 0 5.43 8.64 9.5
07:54 2 18.4 72 38,460 0.15 0 1.73 14.61 44.96 0 6.29 10.76 11.84
07:53 2 18.3 72 38,460 0.17 0 1.66 14.06 47.34 0 5.43 10.05 11.06
07:52 2 18.3 72 38,460 0.16 0 1.75 18.58 42.15 0 5.43 8.6 9.46
07:51 2 18.3 72 38,460 0.14 0 1.62 13.93 46.4 0 6.29 10.04 11.05
07:50 2 18.2 72 38,460 0.16 0 1.6 12.08 45.52 0 4.57 9.33 10.27
07:49 2 18.2 72 38,460 0.15 0 1.45 16.63 45.52 0 4.57 9.32 10.25
07:48 2 18.2 72 38,460 0.16 0 1.52 10.3 50.59 0 5.43 8.62 9.48